STARLINK-31866, 59668

Orbit data source: Space-Track

STARLINK-31866, 59668 is a payload satellite owned by SpaceX/Seattle (US) in LEO that was launched on Mon, 06 May 2024 UTC via an FALCON 9 launch vehicle from the Air Force Eastern Test Range (AFETR). Payload-class satellites include a variety of spacecraft equipped with specific instruments for various scientific and technological missions. These include communications satellites like Starlink; space stations such as the ISS; scientific satellites like the Hubble; Earth observation satellites from companies like Planet Labs, Umbra, and HawkEye 360; GPS; miniature CubeSats for education and research; and military/defense satellites.

Loading next visibility...
Identifier
59668, 2024-084Q
Orbit
LEO
Country
Flag of USUS
Related business
Manufacturer
SpaceX/Seattle
Mission
Operational Commercial Communications
Bus & Motor
STARLINK V2M, Unknown motor
Mass
730 kg wet, ~700 kg dry
Launch date (UTC)
2024-05-06 (2 years ago)
Launch vehicle
FALCON 9
Launch site
Air Force Eastern Test Range (AFETR)
Object type
Payload
Rocket body
Debris
Shape & HBR
Box + 2 Pan, 17.7 m
Radar Cross Section
33.884 m², Large (>1 m²)

Expand to show TLE details & history
Last TLE update: 6 hours ago

TLE from 6 hours ago
0 STARLINK-31866
1 59668U 24084Q   26073.49647591  .00000012  00000-0  99535-5 0  9994
2 59668  43.0031   7.2512 0001178 274.4937  85.5780 15.27583397105196
Epoch: 2026-03-14T11:54Z
TLE epoch observation values (Epoch: 2026-03-14T11:54:55.518Z)
Latitude
-0.00003°
Longitude
16.40302°
Altitude
482.752 km
Speed
7.626 km/s
True Right ascension
00h 29m 00s
True Declination
0° 00' 00"
Sunlit
Object was in daylight at epoch
Visualization orbit readout
Latitude
Unknown
Longitude
Unknown
Altitude
Unknown
Speed
Unknown
Apparent Right ascension
Unknown
Apparent Declination
Unknown
Sunlit
N/A
Visualization observer readout
Local Sidereal Time
22:40:16
Azimuth
Unknown
Elevation
Unknown
Doppler factor
Unknown
Orbital elements
Apogee altitude
485.792 km
Perigee altitude
484.175 km
Semi-major axis
6,863.121 km
Eccentricity
0.00012
Inclination
43.0031°
RAAN
7.2512°
Arg. of periapsis
274.4937°
True anomaly
85.59146°
Mean anomaly
85.578°
Eccentric anomaly
85.58473°
Mean motion
3.81734 °/min
Orbital period
94.31 mins
BSTAR
0.0000099535
Loading maneuver chart data...
Computing Atmospheric mass density...
Loading historical data...
Loading historical data...
Loading historical data...
Loading historical data...
Loading historical data...
Loading historical data...
Loading historical data...

Documentation

Showing up to 5 results
|